[[{"header":{"parameterUnit":"m.s-1","parameterCategory":1,"la1":30.2991,"la2":30.254,"lo1":-89.0895,"lo2":-89.0444,"dy":0.0017,"dx":0.0017,"nx":28,"ny":28,"refTime":"2026-01-29T09:00:00:Z","depth":0,"parameterNumber":2,"parameterNumberName":"U-component_of_WINDS"},"data":[0,0,0,0,0,0,0,0,0,0,0,0,0,0,0,0,0,0,0,0,0,0,0,0,0,0,0,0,0,0,0,0,0,0,0,0,0,0,0,0,0,0,0,0,0,0,0,0,0,0,0,0,0,0,0,0,0,0,1.7698,1.7698,0,1.7697,1.7697,1.7697,1.7631,1.763,1.7628,1.7626,1.7625,1.7627,1.7628,0,0,0,0,0,0,0,0,0,0,0,0,0,1.7642,1.7643,1.7698,1.7698,1.7698,1.7697,1.7697,1.7697,1.7632,1.763,1.7627,1.7625,1.7625,1.7627,1.7628,0,0,0,0,0,0,0,0,0,0,0,0,0,1.7656,1.7643,1.7698,1.7665,1.7662,1.7697,1.7697,1.7697,1.7632,1.7629,1.7627,1.7625,1.7624,1.7626,1.7629,1.7695,0,0,1.7636,1.7637,0,0,0,0,0,0,0,0,1.7655,1.7658,1.767,1.7667,1.7664,1.7662,1.7677,1.7696,1.7633,1.7644,1.7626,1.7623,1.7639,1.764,1.7646,1.7695,1.7695,1.7636,1.7638,1.7639,1.7639,0,0,0,0,0,0,0,1.7654,1.7658,1.7698,1.767,1.7667,1.765,1.7649,1.768,1.7656,1.7642,1.7638,1.7638,1.7637,1.7644,1.7645,1.7695,1.7636,1.7638,1.764,1.7641,1.7798,1.7801,0,0,0,0,0,0,1.7658,1.7657,1.7698,1.7698,1.7653,1.7653,1.7652,1.7665,1.7655,1.7651,1.7641,1.7635,1.7641,1.7643,1.7645,1.7722,1.7639,1.7641,1.7642,1.7796,1.7799,1.7802,0,0,0,0,0,0,1.7657,1.7662,1.7698,1.7676,1.7679,1.7657,1.7672,1.7666,1.7673,1.7654,1.7649,1.7652,1.7639,1.7642,1.7683,1.7721,1.7642,1.7644,1.7792,1.7797,1.78,1.7877,0,0,0,0,0,0,1.7656,1.7662,1.7687,1.7677,1.7681,1.7736,1.7674,1.7668,1.7677,1.767,1.7663,1.766,1.7637,1.768,1.7685,1.7723,1.7646,1.7789,1.7794,1.7799,1.7871,1.7883,1.7893,0,0,0,0,0,1.7654,1.7709,1.7689,1.7694,1.7712,1.7738,1.774,1.7714,1.768,1.7705,1.7693,1.766,1.7716,1.7685,1.769,1.7729,1.7786,1.7793,1.7799,1.7865,1.788,1.7893,0,0,0,0,0,0,1.7724,1.7707,1.7685,1.7738,1.774,1.7727,1.7758,1.773,1.7742,1.7735,1.7701,1.77,1.7747,1.7742,1.7707,1.7793,1.7745,1.7753,1.7794,1.7808,1.7819,1.7819,1.7648,0,0,0,0,0,1.7745,1.7768,1.7752,1.7801,1.7803,1.7781,1.7791,1.777,1.7771,1.7772,1.7762,1.7765,1.7782,1.7795,1.7811,1.787,1.7867,1.7899,1.791,1.792,1.7927,1.7958,1.7972,1.7822,1.7822,1.7822,0,0,1.779,1.7784,1.78,1.7815,1.7814,1.7838,1.7782,1.781,1.7828,1.7776,1.7814,1.7808,1.7808,1.7858,1.788,1.7856,1.7968,1.7928,1.7936,1.7937,1.7966,1.798,1.7992,1.7827,1.7826,1.7825,0,0,1.7884,1.7882,1.7922,1.7922,1.7922,1.7907,1.7916,1.7908,1.7902,1.794,1.7901,1.7922,1.7954,1.7955,1.796,1.8055,1.8025,1.8061,1.8121,1.8151,1.8163,1.8173,1.8207,1.822,1.8068,1.8069,1.8069,0,1.7939,1.7975,1.7946,1.7977,1.7984,1.7939,1.7979,1.7981,1.7986,1.7992,1.7965,1.8004,1.8,1.8051,1.8074,1.808,1.8089,1.8062,1.8164,1.8174,1.8183,1.8215,1.8228,1.8073,1.8073,1.8072,1.8072,0,1.8043,1.8069,1.8101,1.8107,1.8118,1.8154,1.813,1.8145,1.8123,1.8111,1.815,1.8145,1.8158,1.8169,1.8148,1.8217,1.8201,1.817,1.8121,1.8202,1.8232,1.8244,1.8079,1.8078,1.8077,1.8075,0,0,1.8181,1.8171,1.8183,1.8185,1.8182,1.8201,1.8234,1.8248,1.8261,1.8266,1.8293,1.8322,1.8292,1.8298,1.8277,1.8304,1.8379,1.8268,1.8268,1.8289,1.8455,1.8478,1.8493,1.8359,1.8362,1.8363,1.8454,0,1.8272,1.8329,1.8304,1.8363,1.8386,1.8343,1.8372,1.8373,1.8363,1.838,1.8368,1.8389,1.8349,1.8352,1.8377,1.8365,1.8412,1.8358,1.8384,1.8385,1.8385,1.8508,1.8534,1.862,1.8466,1.8468,1.8469,0,1.8386,1.8396,1.8458,1.845,1.8459,1.8486,1.8496,1.8514,1.8514,1.8504,1.8511,1.8484,1.8516,1.8468,1.8512,1.8476,1.8485,1.8481,1.8484,1.8485,1.8432,1.8513,1.8647,1.866,1.8487,1.8486,1.8484,0,1.848,1.8509,1.855,1.8553,1.8545,1.8565,1.8562,1.856,1.857,1.8579,1.8585,1.8598,1.8605,1.8616,1.8593,1.856,1.864,1.859,1.8633,1.8634,1.8651,1.8651,1.8789,1.8658,1.8658,1.8657,1.8657,0,1.8584,1.8624,1.8592,1.8617,1.866,1.863,1.8674,1.8667,1.8665,1.8688,1.8651,1.8674,1.8642,1.8661,1.8643,1.8682,1.8686,1.8679,1.8674,1.8682,1.8683,1.8688,1.8681,1.8661,1.866,1.8659,1.8659,0,1.8697,1.8677,1.8718,1.8708,1.8706,1.8738,1.8729,1.8752,1.8738,1.8768,1.8773,1.8753,1.8773,1.8751,1.877,1.8758,1.8811,1.8797,1.8811,1.8807,1.8851,1.8847,1.8997,1.9015,1.8873,1.8874,1.8875,0,1.8765,1.8794,1.8787,1.8799,1.8799,1.882,1.883,1.8802,1.8814,1.8817,1.8839,1.8857,1.8869,1.8904,1.8891,1.8906,1.8892,1.8943,1.8894,1.8901,1.8892,1.8891,1.8894,1.8953,1.8955,1.8956,1.8957,0,1.8887,1.8876,1.8892,1.8904,1.8917,1.8926,1.8931,1.8944,1.8915,1.893,1.8951,1.8961,1.898,1.8998,1.9009,1.9006,1.8977,1.8973,1.8984,1.8993,1.8999,1.8996,1.8839,1.897,1.8968,1.8968,1.8967,1.8966,1.8979,1.9003,1.9002,1.9021,1.9022,1.9028,1.9049,1.9039,1.9056,1.907,1.9052,1.9078,1.9077,1.9088,1.9089,1.9109,1.9087,1.9102,1.9106,1.911,1.9117,1.8997,1.9111,1.911,1.911,1.911,1.9109,0,1.91,1.9097,1.9114,1.9124,1.9139,1.911,1.9115,1.9129,1.9152,1.9154,1.9167,1.9191,1.9209,1.9197,1.9212,1.923,1.9217,1.9234,1.9233,1.9233,1.9136,1.9125,1.9245,1.9245,1.9245,1.9245,1.9245,1.9244,1.9164,1.9204,1.9192,1.9232,1.9229,1.9254,1.9259,1.9264,1.9266,1.9294,1.9308,1.9301,1.9297,1.9311,1.9326,1.9322,1.9329,1.9352,1.9343,1.9253,1.9239,1.9227,1.9216,1.9353,1.9354,1.9438,1.9439,1.944]},{"header":{"parameterUnit":"m.s-1","parameterCategory":1,"la1":30.2991,"la2":30.254,"lo1":-89.0895,"lo2":-89.0444,"dy":0.0017,"dx":0.0017,"nx":28,"ny":28,"refTime":"2026-01-29T09:00:00:Z","depth":0,"parameterNumber":3,"parameterNumberName":"V-component_of_WINDS"},"data":[0,0,0,0,0,0,0,0,0,0,0,0,0,0,0,0,0,0,0,0,0,0,0,0,0,0,0,0,0,0,0,0,0,0,0,0,0,0,0,0,0,0,0,0,0,0,0,0,0,0,0,0,0,0,0,0,0,0,-2.4902,-2.4904,0,-2.5018,-2.5019,-2.502,-2.5039,-2.5038,-2.5037,-2.5036,-2.5153,-2.5157,-2.5161,0,0,0,0,0,0,0,0,0,0,0,0,0,-2.4697,-2.47,-2.4902,-2.4904,-2.4905,-2.5017,-2.5019,-2.5021,-2.5039,-2.5038,-2.5036,-2.5035,-2.5151,-2.5156,-2.5161,0,0,0,0,0,0,0,0,0,0,0,0,0,-2.4796,-2.4702,-2.4902,-2.4928,-2.4931,-2.5017,-2.5019,-2.5021,-2.5039,-2.5037,-2.5036,-2.5035,-2.515,-2.5156,-2.5162,-2.523,0,0,-2.518,-2.5183,0,0,0,0,0,0,0,0,-2.4791,-2.4804,-2.4923,-2.4926,-2.493,-2.5012,-2.499,-2.5091,-2.5039,-2.4998,-2.5036,-2.5034,-2.5107,-2.5117,-2.5141,-2.5235,-2.524,-2.5181,-2.5184,-2.5187,-2.5189,0,0,0,0,0,0,0,-2.4784,-2.4799,-2.4948,-2.4924,-2.4929,-2.4933,-2.4946,-2.5009,-2.506,-2.5002,-2.5003,-2.5017,-2.5109,-2.5136,-2.5144,-2.5242,-2.5181,-2.5186,-2.519,-2.5192,-2.5396,-2.5398,0,0,0,0,0,0,-2.4772,-2.4793,-2.4944,-2.4951,-2.4855,-2.4938,-2.4952,-2.4987,-2.5059,-2.5068,-2.5018,-2.5017,-2.5126,-2.5137,-2.5149,-2.5232,-2.5187,-2.5193,-2.5196,-2.5394,-2.5397,-2.5398,0,0,0,0,0,0,-2.4768,-2.4786,-2.494,-2.4873,-2.4893,-2.4943,-2.4983,-2.499,-2.5017,-2.5071,-2.508,-2.5036,-2.5125,-2.514,-2.5209,-2.5236,-2.5195,-2.5201,-2.5392,-2.5395,-2.5397,-2.54,0,0,0,0,0,0,-2.4762,-2.4784,-2.4811,-2.4873,-2.4896,-2.4999,-2.4985,-2.4994,-2.5028,-2.5028,-2.5091,-2.5099,-2.5125,-2.52,-2.5215,-2.5244,-2.5206,-2.539,-2.5393,-2.5397,-2.5398,-2.5402,-2.5406,0,0,0,0,0,-2.4755,-2.4807,-2.4812,-2.483,-2.4931,-2.5,-2.5013,-2.5042,-2.503,-2.5057,-2.5092,-2.5097,-2.5231,-2.5207,-2.5224,-2.5255,-2.5388,-2.5393,-2.5396,-2.5396,-2.5401,-2.5406,0,0,0,0,0,0,-2.4745,-2.4815,-2.4822,-2.4896,-2.4942,-2.5003,-2.5038,-2.5047,-2.5097,-2.5095,-2.5129,-2.5143,-2.521,-2.524,-2.5211,-2.5324,-2.5309,-2.5316,-2.5302,-2.5308,-2.5312,-2.5303,-2.5211,0,0,0,0,0,-2.4752,-2.4803,-2.4861,-2.4921,-2.4944,-2.4987,-2.5018,-2.5036,-2.5085,-2.5105,-2.5145,-2.5192,-2.5244,-2.5278,-2.533,-2.5402,-2.5416,-2.5432,-2.5437,-2.544,-2.5446,-2.5486,-2.5493,-2.5411,-2.5411,-2.5411,0,0,-2.4766,-2.4811,-2.4841,-2.492,-2.4958,-2.501,-2.5003,-2.5058,-2.5096,-2.5113,-2.5181,-2.5212,-2.5266,-2.5337,-2.5371,-2.5364,-2.5472,-2.5445,-2.5447,-2.5451,-2.549,-2.5498,-2.5505,-2.5414,-2.5414,-2.5413,0,0,-2.4818,-2.4857,-2.4911,-2.4949,-2.5006,-2.5035,-2.5048,-2.5108,-2.5129,-2.5197,-2.5211,-2.5257,-2.5347,-2.5385,-2.5416,-2.5483,-2.549,-2.5498,-2.5521,-2.5559,-2.5566,-2.5572,-2.5594,-2.5602,-2.5504,-2.5504,-2.5504,0,-2.4828,-2.4907,-2.4937,-2.4992,-2.5026,-2.5044,-2.5098,-2.5133,-2.5204,-2.5227,-2.5219,-2.5333,-2.5371,-2.5451,-2.5467,-2.5492,-2.5507,-2.5491,-2.5562,-2.5569,-2.5574,-2.5596,-2.5605,-2.5505,-2.5505,-2.5505,-2.5505,0,-2.4916,-2.497,-2.5006,-2.5075,-2.5113,-2.5167,-2.5205,-2.5241,-2.5255,-2.5284,-2.5354,-2.54,-2.5461,-2.5482,-2.5497,-2.5563,-2.5558,-2.5556,-2.554,-2.5582,-2.5603,-2.5612,-2.5506,-2.5506,-2.5505,-2.5505,0,0,-2.4964,-2.5049,-2.5062,-2.5092,-2.5157,-2.52,-2.5254,-2.5314,-2.5343,-2.5392,-2.5438,-2.5514,-2.5512,-2.5548,-2.5568,-2.5602,-2.565,-2.5596,-2.5597,-2.5603,-2.5725,-2.5725,-2.5734,-2.5655,-2.5657,-2.5659,-2.572,0,-2.5023,-2.5121,-2.515,-2.5232,-2.5282,-2.53,-2.5347,-2.5392,-2.5421,-2.5467,-2.5499,-2.5551,-2.5546,-2.5568,-2.5602,-2.5637,-2.5675,-2.5633,-2.5698,-2.57,-2.5682,-2.5746,-2.5746,-2.5802,-2.5729,-2.573,-2.5731,0,-2.5104,-2.5154,-2.5241,-2.5299,-2.5321,-2.5363,-2.542,-2.5465,-2.5515,-2.5534,-2.5573,-2.559,-2.5647,-2.563,-2.5709,-2.5679,-2.5708,-2.5729,-2.5732,-2.5738,-2.5717,-2.5752,-2.5821,-2.5828,-2.5745,-2.5744,-2.5743,0,-2.5129,-2.5218,-2.5282,-2.5308,-2.5378,-2.5407,-2.5437,-2.5486,-2.552,-2.557,-2.5592,-2.5648,-2.5678,-2.5721,-2.5752,-2.5736,-2.5828,-2.5813,-2.5844,-2.5843,-2.5861,-2.5859,-2.5933,-2.5881,-2.5881,-2.5881,-2.5881,0,-2.5191,-2.5243,-2.5294,-2.5333,-2.5392,-2.5425,-2.5482,-2.5513,-2.5557,-2.5602,-2.5621,-2.5663,-2.5702,-2.5749,-2.5774,-2.5835,-2.5849,-2.5864,-2.587,-2.5862,-2.586,-2.588,-2.5877,-2.5883,-2.5883,-2.5882,-2.5882,0,-2.5228,-2.5265,-2.5335,-2.5395,-2.5411,-2.5452,-2.5503,-2.5542,-2.5571,-2.5628,-2.5643,-2.5689,-2.5745,-2.5781,-2.5852,-2.5869,-2.5935,-2.594,-2.5918,-2.592,-2.5949,-2.5945,-2.6038,-2.6051,-2.5991,-2.5991,-2.5992,0,-2.5264,-2.5305,-2.5369,-2.5401,-2.5431,-2.5482,-2.5517,-2.5551,-2.5586,-2.5647,-2.5678,-2.5735,-2.5783,-2.5871,-2.5911,-2.5966,-2.5971,-2.6,-2.598,-2.597,-2.597,-2.5967,-2.5971,-2.6003,-2.6003,-2.6004,-2.6004,0,-2.5324,-2.534,-2.539,-2.5445,-2.5486,-2.5532,-2.5577,-2.5602,-2.5644,-2.5682,-2.574,-2.5777,-2.585,-2.5906,-2.5964,-2.5995,-2.6006,-2.6011,-2.602,-2.6012,-2.5997,-2.6004,-2.5926,-2.6008,-2.6008,-2.6007,-2.6007,-2.6007,-2.5362,-2.5398,-2.5449,-2.5503,-2.5541,-2.5583,-2.5622,-2.5656,-2.5705,-2.5767,-2.5784,-2.5844,-2.5894,-2.5973,-2.6005,-2.6052,-2.6048,-2.6063,-2.6066,-2.6069,-2.6069,-2.599,-2.6063,-2.6063,-2.6063,-2.6063,-2.6063,0,-2.5422,-2.5455,-2.5505,-2.5568,-2.561,-2.5618,-2.5669,-2.5703,-2.5756,-2.5801,-2.5848,-2.5914,-2.5969,-2.6013,-2.6069,-2.6098,-2.6105,-2.6112,-2.6109,-2.6116,-2.6069,-2.6055,-2.6105,-2.6105,-2.6105,-2.6105,-2.6105,-2.6105,-2.5458,-2.552,-2.5542,-2.5623,-2.5656,-2.5715,-2.5743,-2.5782,-2.5818,-2.5891,-2.5936,-2.5965,-2.601,-2.607,-2.612,-2.6132,-2.6151,-2.6157,-2.6169,-2.6124,-2.6119,-2.6115,-2.6101,-2.6161,-2.6161,-2.6212,-2.6212,-2.6212]}]]